Powrót do katalogu

IRIDIUM 33 DEB

LostPO
NORAD 36482·DEBRIS·🇺🇸 United States

Wystrzelony Sep 14, 1997 z Baikonur Cosmodrome

Loading…

Następne Przeloty (najbliższe 24 godziny)

TLE

NieaktualneSource: Space-Track

Epoka: Jun 29, 2022, 05:49 UTC

1 36482U 97051VY  22180.24288269  .00001957  00000-0  43990-3 0  9999
2 36482  86.3451 165.2718 0020807 143.7648 216.4974 14.55895794682659

Śledź IRIDIUM 33 DEB w czasie rzeczywistym z AllMySat

Download on the App Store